Weather Roundup
Issued by NWS Chicago, IL

Home | Current Version | Previous Version | Text Only | Print | Product List | Glossary Off
Versions: 1 2 3 4 5 6 7 8 9 10 11 12 13 14 15 16 17 18 19 20 21 22 23 24 25 26 27 28 29 30 31 32 33 34 35 36 37 38 39 40 41 42 43 44 45 46 47 48 49 50

000
NZUS59 KLOT 231403
HRRLOT

CHICAGO AREA WEATHER ROUNDUP
NATIONAL WEATHER SERVICE CHICAGO/ROMEOVILLE IL
800 AM CST THU NOV 23 2017

NOTE: "FAIR" INDICATES FEW OR NO CLOUDS BELOW 12,000 FEET WITH NO
SIGNIFICANT WEATHER AND/OR OBSTRUCTIONS TO VISIBILITY.

* THESE STATIONS ARE NOT UNDER NWS QUALITY CONTROL. THEY ALSO MAY NOT
  REPORT WEATHER SUCH AS PRECIPITATION OR FOG.

ILZ005-006-012>014-019>023-231500-
NORTHEAST ILLINOIS

CITY           SKY/WX    TMP DP  RH WIND       PRES   REMARKS
OHARE          PTCLDY    33  21  61 S8        30.03R WCI  26
MIDWAY         NOT AVBL
AURORA         CLEAR     33  22  63 S9        30.04R WCI  25
LANSING*       CLOUDY    33  26  75 S8        30.07S WCI  26
JOLIET*        CLEAR     35  24  65 S6        30.06R WCI  30
WAUKEGAN       PTCLDY    32  21  64 SW9       30.01R WCI  24
DUPAGE AIRPORT CLEAR     31  24  75 S7        30.03R WCI  24
WHEELING       MOCLDY    35  22  58 S9        30.04S WCI  28
KANKAKEE*      CLOUDY    32  24  70 S7        30.08S WCI  26
MORRIS*        CLEAR     33  24  71 S6        30.04S WCI  27
LEWIS AIRPORT* PTCLDY    33  24  70 S7        30.05R WCI  26
NORTHERLY ISL    N/A     34  20  57 S6          N/A  WCI  29
$$

WIZ051-052-058>065-066-070>072-231500-
SOUTHEAST WISCONSIN

CITY           SKY/WX    TMP DP  RH WIND       PRES   REMARKS
MILWAUKEE      PTCLDY    34  21  59 SW12      30.00R WCI  25
KENOSHA*       PTCLDY    33  20  58 SW9       30.01R WCI  25
RACINE*        CLEAR     33  20  58 SW8       30.02R WCI  26
WAUKESHA       PTCLDY    30  19  64 S6        29.99S WCI  24
WEST BEND      CLOUDY    32  19  59 SW6       29.98S WCI  26
$$

INZ001>003-010>013-019-020-231500-
NORTHWEST INDIANA

CITY           SKY/WX    TMP DP  RH WIND       PRES   REMARKS
GARY*          PTSUNNY   36  21  55 SW12      30.07S
MICHIGAN CITY* NOT AVBL
RENSSELAER*    NOT AVBL
VALPARAISO     CLOUDY    34  23  64 SW7       30.08S WCI  28
$$

LMZ740>746-231500-
SOUTHERN LAKE MICHIGAN

STATION/POSITION TIME  SKY/WX   TEMP WIND        PRES    VSBY
                                AIR  DIR/SP/G
                 (UTC)          (F)  (DEG/KT/KT) (MB)    (MI)
HARRISON CRIB    1340            36  200/ 13/ 14   N/A
BURNHAM HARBOR   1400            34  160/  7/ 10   N/A
CALUMET HARBOR   1330            34  190/  8/ 11 1016.9F
BURNS HARBOR     1340            33  190/  8/ 13 1018.6S
MICHIGAN CITY    1340            33  170/  7/  8   N/A
$$

ABBREVIATIONS USED IN REMARKS
   TC - TEMPERATURE IN CELSIUS
  WCI - WIND CHILL INDEX
   HX - HEAT INDEX
  VSB - VISIBILITY
$$




USA.gov is the U.S. government's official web portal to all federal, state and local government web resources and services.